When you browse on this site, cookies collect data to enhance your experience and personalize the content and advertising you see.
Visit our Privacy Policy to learn more. By continuing to use the site, you agree to this use of cookies and data.
  • In Hungary
  • List of Countries
  • For 7 days
  • Water Temperature
  • Weather Map
  • News
  • Weather Widgets
  • user-avatar
    Login

    Hourly Weather Malynivka

    Today, 9 April, Thursday

    Time Temperature Precipitation Wind Pressure Humidity
    00:00 +5°C° 0 mm 3 mps 755 mmHg 48%
    01:00 +4°C° 0 mm 3 mps 755 mmHg 50%
    02:00 +4°C° 0 mm 4 mps 755 mmHg 50%
    03:00 +4°C° 0 mm 3 mps 754 mmHg 54%
    04:00 +4°C° 0 mm 3 mps 754 mmHg 57%
    05:00 +4°C° 0 mm 2 mps 754 mmHg 60%
    06:00 +6°C° 0 mm 2 mps 754 mmHg 59%
    07:00 +8°C° 0 mm 2 mps 754 mmHg 58%
    08:00 +10°C° 0 mm 2 mps 754 mmHg 56%
    09:00 +13°C° 0 mm 2 mps 754 mmHg 53%
    10:00 +14°C° 0 mm 2 mps 754 mmHg 50%
    11:00 +16°C° 0 mm 3 mps 754 mmHg 47%
    12:00 +16°C° 0 mm 3 mps 754 mmHg 46%
    13:00 +16°C° 0 mm 3 mps 754 mmHg 45%
    14:00 +17°C° 0 mm 3 mps 753 mmHg 44%
    15:00 +16°C° 0 mm 3 mps 753 mmHg 46%
    16:00 +15°C° 0 mm 2 mps 753 mmHg 49%
    17:00 +15°C° 0 mm 2 mps 753 mmHg 52%
    18:00 +13°C° 0 mm 2 mps 753 mmHg 56%
    19:00 +12°C° 0 mm 1 mps 753 mmHg 60%
    20:00 +11°C° 0 mm 1 mps 753 mmHg 64%
    21:00 +10°C° 0 mm 1 mps 753 mmHg 65%
    22:00 +10°C° 0 mm 1 mps 752 mmHg 65%
    23:00 +10°C° 0 mm 1 mps 752 mmHg 66%

    Tomorrow, 10 April, Friday

    Time Temperature Precipitation Wind Pressure Humidity
    00:00 +10°C° 0 mm 1 mps 752 mmHg 67%
    01:00 +8°C° 0 mm 0 mps 752 mmHg 69%
    02:00 +8°C° 0 mm 0 mps 751 mmHg 70%
    03:00 +8°C° 0 mm 0 mps 751 mmHg 71%
    04:00 +8°C° 0 mm 1 mps 751 mmHg 72%
    05:00 +8°C° 0 mm 1 mps 751 mmHg 73%
    06:00 +10°C° 0 mm 1 mps 751 mmHg 67%
    07:00 +12°C° 0 mm 2 mps 751 mmHg 62%
    08:00 +13°C° 0 mm 2 mps 751 mmHg 56%
    09:00 +14°C° 0 mm 3 mps 751 mmHg 52%
    10:00 +16°C° 0 mm 3 mps 751 mmHg 48%
    11:00 +17°C° 0 mm 4 mps 750 mmHg 44%
    12:00 +17°C° 0 mm 4 mps 750 mmHg 44%
    13:00 +18°C° 0 mm 4 mps 750 mmHg 43%
    14:00 +17°C° 0 mm 5 mps 749 mmHg 42%
    15:00 +16°C° 0 mm 5 mps 749 mmHg 47%
    16:00 +15°C° 0 mm 5 mps 749 mmHg 51%
    17:00 +14°C° 0 mm 6 mps 748 mmHg 56%
    18:00 +13°C° 0.2 mm 5 mps 749 mmHg 62%
    19:00 +12°C° 0.2 mm 5 mps 749 mmHg 69%
    20:00 +10°C° 0.2 mm 5 mps 749 mmHg 75%
    21:00 +9°C° 0.5 mm 5 mps 749 mmHg 76%
    22:00 +9°C° 0.5 mm 5 mps 749 mmHg 77%
    23:00 +8°C° 0.5 mm 5 mps 749 mmHg 77%

    Day after tomorrow, 11 April, Saturday

    Time Temperature Precipitation Wind Pressure Humidity
    00:00 +7°C° 0 mm 5 mps 749 mmHg 76%
    01:00 +6°C° 0 mm 5 mps 750 mmHg 75%
    02:00 +5°C° 0 mm 5 mps 750 mmHg 73%
    03:00 +5°C° 0 mm 5 mps 750 mmHg 74%
    04:00 +3°C° 0 mm 5 mps 750 mmHg 75%
    05:00 +3°C° 0 mm 5 mps 751 mmHg 76%
    06:00 +5°C° 0 mm 5 mps 751 mmHg 69%
    07:00 +5°C° 0 mm 6 mps 751 mmHg 62%
    08:00 +8°C° 0 mm 6 mps 752 mmHg 55%
    09:00 +9°C° 0 mm 6 mps 752 mmHg 51%
    10:00 +10°C° 0 mm 6 mps 753 mmHg 47%
    11:00 +12°C° 0 mm 5 mps 753 mmHg 43%
    12:00 +11°C° 0 mm 6 mps 753 mmHg 42%
    13:00 +11°C° 0 mm 6 mps 753 mmHg 40%
    14:00 +11°C° 0 mm 6 mps 753 mmHg 39%
    15:00 +11°C° 0 mm 6 mps 753 mmHg 40%
    16:00 +11°C° 0 mm 6 mps 753 mmHg 41%
    17:00 +10°C° 0 mm 6 mps 753 mmHg 42%
    18:00 +9°C° 0 mm 5 mps 754 mmHg 47%
    19:00 +8°C° 0 mm 4 mps 754 mmHg 52%
    20:00 +8°C° 0 mm 3 mps 754 mmHg 57%
    21:00 +6°C° 0 mm 4 mps 755 mmHg 59%
    22:00 +6°C° 0 mm 4 mps 755 mmHg 60%
    23:00 +5°C° 0 mm 4 mps 755 mmHg 62%

    12 April, Sunday

    Time Temperature Precipitation Wind Pressure Humidity
    00:00 +5°C° 0 mm 4 mps 755 mmHg 60%
    01:00 +4°C° 0 mm 4 mps 756 mmHg 58%
    02:00 +2°C° 0 mm 5 mps 756 mmHg 57%
    03:00 +3°C° 0 mm 4 mps 756 mmHg 58%
    04:00 +1°C° 0 mm 4 mps 757 mmHg 60%
    05:00 0°C° 0 mm 4 mps 757 mmHg 61%
    06:00 +3°C° 0 mm 4 mps 757 mmHg 56%
    07:00 +3°C° 0 mm 5 mps 758 mmHg 51%
    08:00 +5°C° 0 mm 5 mps 758 mmHg 46%
    09:00 +6°C° 0 mm 5 mps 759 mmHg 43%
    10:00 +7°C° 0 mm 4 mps 759 mmHg 40%
    11:00 +8°C° 0 mm 4 mps 759 mmHg 36%
    12:00 +10°C° 0 mm 4 mps 759 mmHg 35%
    13:00 +10°C° 0 mm 4 mps 759 mmHg 34%
    14:00 +11°C° 0 mm 4 mps 759 mmHg 33%
    15:00 +11°C° 0 mm 4 mps 759 mmHg 34%
    16:00 +10°C° 0 mm 4 mps 759 mmHg 35%
    17:00 +10°C° 0 mm 3 mps 759 mmHg 36%
    18:00 +9°C° 0 mm 3 mps 759 mmHg 40%
    19:00 +7°C° 0 mm 2 mps 759 mmHg 44%
    20:00 +6°C° 0 mm 2 mps 760 mmHg 48%
    21:00 +7°C° 0 mm 1 mps 759 mmHg 49%
    22:00 +6°C° 0 mm 1 mps 759 mmHg 49%
    23:00 +6°C° 0 mm 1 mps 759 mmHg 50%

    13 April, Monday

    Time Temperature Precipitation Wind Pressure Humidity
    00:00 +5°C° 0 mm 1 mps 759 mmHg 51%
    01:00 +5°C° 0 mm 1 mps 759 mmHg 52%
    02:00 +5°C° 0 mm 1 mps 759 mmHg 53%
    03:00 +5°C° 0 mm 1 mps 759 mmHg 55%
    04:00 +4°C° 0 mm 1 mps 759 mmHg 57%
    05:00 +4°C° 0 mm 1 mps 759 mmHg 58%
    06:00 +6°C° 0 mm 1 mps 759 mmHg 54%
    07:00 +8°C° 0 mm 1 mps 759 mmHg 49%
    08:00 +9°C° 0 mm 2 mps 759 mmHg 44%
    09:00 +10°C° 0 mm 3 mps 758 mmHg 42%
    10:00 +11°C° 0 mm 3 mps 758 mmHg 39%
    11:00 +12°C° 0 mm 4 mps 758 mmHg 36%
    12:00 +12°C° 0 mm 4 mps 757 mmHg 37%
    13:00 +12°C° 0 mm 5 mps 757 mmHg 38%
    14:00 +12°C° 0 mm 5 mps 756 mmHg 39%
    15:00 +10°C° 0 mm 5 mps 756 mmHg 40%
    16:00 +10°C° 0 mm 4 mps 755 mmHg 42%
    17:00 +8°C° 0 mm 4 mps 754 mmHg 43%
    18:00 +8°C° 0 mm 3 mps 754 mmHg 48%
    19:00 +7°C° 0 mm 3 mps 754 mmHg 53%
    20:00 +5°C° 0 mm 2 mps 754 mmHg 57%
    21:00 +5°C° 0 mm 2 mps 753 mmHg 61%
    22:00 +5°C° 0 mm 2 mps 753 mmHg 65%
    23:00 +4°C° 0 mm 2 mps 753 mmHg 68%

    14 April, Tuesday

    Time Temperature Precipitation Wind Pressure Humidity
    00:00 +3°C° 0 mm 3 mps 752 mmHg 73%
    01:00 +3°C° 0 mm 3 mps 751 mmHg 78%
    02:00 +3°C° 0 mm 3 mps 750 mmHg 83%
    03:00 +3°C° 0 mm 3 mps 750 mmHg 83%
    04:00 +3°C° 0 mm 4 mps 749 mmHg 83%
    05:00 +3°C° 0 mm 4 mps 749 mmHg 83%
    06:00 +3°C° 0 mm 5 mps 748 mmHg 76%
    07:00 +5°C° 0 mm 6 mps 748 mmHg 69%
    08:00 +6°C° 0 mm 7 mps 748 mmHg 63%
    09:00 +8°C° 0 mm 7 mps 747 mmHg 60%
    10:00 +9°C° 0 mm 8 mps 746 mmHg 58%
    11:00 +10°C° 0 mm 8 mps 746 mmHg 55%
    12:00 +10°C° 0 mm 8 mps 745 mmHg 54%
    13:00 +10°C° 0 mm 8 mps 745 mmHg 52%
    14:00 +11°C° 0 mm 8 mps 745 mmHg 51%
    15:00 +10°C° 0.3 mm 8 mps 745 mmHg 60%
    16:00 +9°C° 0.3 mm 8 mps 745 mmHg 70%
    17:00 +6°C° 0.3 mm 8 mps 745 mmHg 79%
    18:00 +5°C° 0.6 mm 8 mps 746 mmHg 79%
    19:00 +2°C° 0.6 mm 8 mps 747 mmHg 78%
    20:00 +1°C° 0.6 mm 8 mps 748 mmHg 78%
    21:00 0°C° 0 mm 7 mps 749 mmHg 74%
    22:00 -1°C° 0 mm 7 mps 750 mmHg 70%
    23:00 -2°C° 0 mm 6 mps 751 mmHg 66%
    Show more